Time,TemperatureF,DewpointF,PressureIn,WindDirection,WindDirectionDegrees,WindSpeedMPH,WindSpeedGustMPH,Humidity,HourlyPrecipIn,Conditions,Clouds,dailyrainin,SoftwareType,DateUTC
2014-01-19 00:00:00,16.7,14.3,29.97,SSE,165,2.0,2.0,90,0.00,,,0.00,Wunderground v.1.15,2014-01-19 05:00:00,
2014-01-19 00:01:00,16.8,14.4,29.97,ESE,116,2.0,2.0,90,0.00,,,0.00,Wunderground v.1.15,2014-01-19 05:01:00,
2014-01-19 00:02:00,16.7,14.3,29.98,ESE,110,1.0,2.0,90,0.00,,,0.00,Wunderground v.1.15,2014-01-19 05:02:00,
2014-01-19 00:03:00,16.7,14.3,29.97,ESE,116,1.0,3.0,90,0.00,,,0.00,Wunderground v.1.15,2014-01-19 05:03:00,
2014-01-19 00:06:00,16.8,14.4,29.97,SSE,168,2.0,3.0,90,0.00,,,0.00,Wunderground v.1.15,2014-01-19 05:06:00,
2014-01-19 00:07:00,16.8,14.4,29.97,SSE,168,1.0,3.0,90,0.00,,,0.00,Wunderground v.1.15,2014-01-19 05:07:00,
2014-01-19 00:13:00,16.7,14.3,29.97,SSE,157,2.0,2.0,90,0.00,,,0.00,Wunderground v.1.15,2014-01-19 05:13:00,
2014-01-19 00:16:00,16.8,14.4,29.97,SSE,163,2.0,2.0,90,0.00,,,0.00,Wunderground v.1.15,2014-01-19 05:16:00,
2014-01-19 00:22:00,16.8,14.4,29.96,SE,144,1.0,3.0,90,0.00,,,0.00,Wunderground v.1.15,2014-01-19 05:22:00,
2014-01-19 00:27:00,16.8,14.4,29.96,South,173,1.0,5.0,90,0.00,,,0.00,Wunderground v.1.15,2014-01-19 05:27:00,
2014-01-19 00:33:00,16.8,14.4,29.96,SE,126,1.0,2.0,90,0.00,,,0.00,Wunderground v.1.15,2014-01-19 05:33:00,
2014-01-19 00:39:00,16.8,14.4,29.96,South,171,2.0,3.0,90,0.00,,,0.00,Wunderground v.1.15,2014-01-19 05:39:00,
2014-01-19 00:45:00,16.8,14.4,29.95,South,185,2.0,3.0,90,0.00,,,0.00,Wunderground v.1.15,2014-01-19 05:45:00,
2014-01-19 00:50:00,16.8,14.4,29.95,South,175,1.0,2.0,90,0.00,,,0.00,Wunderground v.1.15,2014-01-19 05:50:00,
2014-01-19 00:56:00,16.8,14.4,29.95,SSE,152,1.0,2.0,90,0.00,,,0.00,Wunderground v.1.15,2014-01-19 05:56:00,
2014-01-19 01:02:00,16.8,14.4,29.95,SSE,160,1.0,6.0,90,0.00,,,0.00,Wunderground v.1.15,2014-01-19 06:02:00,
2014-01-19 01:08:00,16.9,14.5,29.95,SSE,159,1.0,6.0,90,0.00,,,0.00,Wunderground v.1.15,2014-01-19 06:08:00,
2014-01-19 01:13:00,16.9,14.5,29.95,South,177,1.0,6.0,90,0.00,,,0.00,Wunderground v.1.15,2014-01-19 06:13:00,
2014-01-19 01:19:00,16.9,14.7,29.95,SSE,154,1.0,6.0,91,0.00,,,0.00,Wunderground v.1.15,2014-01-19 06:19:00,
2014-01-19 01:24:00,17.0,14.8,29.94,ESE,107,1.0,6.0,91,0.00,,,0.00,Wunderground v.1.15,2014-01-19 06:24:00,
2014-01-19 01:30:00,17.0,14.8,29.94,SE,144,0.0,6.0,91,0.00,,,0.00,Wunderground v.1.15,2014-01-19 06:30:00,
2014-01-19 01:36:00,17.0,14.8,29.94,SSW,199,0.0,6.0,91,0.00,,,0.00,Wunderground v.1.15,2014-01-19 06:36:00,
2014-01-19 01:42:00,16.9,14.5,29.94,South,178,1.0,6.0,90,0.00,,,0.00,Wunderground v.1.15,2014-01-19 06:42:00,
2014-01-19 01:48:00,16.9,14.5,29.94,South,178,1.0,6.0,90,0.00,,,0.00,Wunderground v.1.15,2014-01-19 06:48:00,
2014-01-19 01:53:00,16.9,14.7,29.94,South,178,1.0,6.0,91,0.00,,,0.00,Wunderground v.1.15,2014-01-19 06:53:00,
2014-01-19 01:59:00,16.9,14.7,29.94,South,178,1.0,6.0,91,0.00,,,0.00,Wunderground v.1.15,2014-01-19 06:59:00,
2014-01-19 02:05:00,16.9,14.7,29.94,South,178,1.0,6.0,91,0.00,,,0.00,Wunderground v.1.15,2014-01-19 07:05:00,
2014-01-19 02:11:00,16.9,14.5,29.93,SSE,167,1.0,6.0,90,0.00,,,0.00,Wunderground v.1.15,2014-01-19 07:11:00,
2014-01-19 02:17:00,16.9,14.7,29.93,SSE,158,1.0,6.0,91,0.00,,,0.00,Wunderground v.1.15,2014-01-19 07:17:00,
2014-01-19 02:22:00,17.0,14.6,29.93,ESE,102,1.0,6.0,90,0.00,,,0.00,Wunderground v.1.15,2014-01-19 07:22:00,
2014-01-19 02:28:00,17.0,14.6,29.93,SE,134,1.0,6.0,90,0.00,,,0.00,Wunderground v.1.15,2014-01-19 07:28:00,
2014-01-19 02:34:00,17.0,14.6,29.92,SSE,149,2.0,6.0,90,0.00,,,0.00,Wunderground v.1.15,2014-01-19 07:34:00,
2014-01-19 02:40:00,17.0,14.6,29.93,SSE,167,2.0,2.0,90,0.00,,,0.00,Wunderground v.1.15,2014-01-19 07:40:00,
2014-01-19 02:45:00,17.0,14.6,29.93,South,188,1.0,6.0,90,0.00,,,0.00,Wunderground v.1.15,2014-01-19 07:45:00,
2014-01-19 02:51:00,17.1,14.7,29.93,South,171,1.0,6.0,90,0.00,,,0.00,Wunderground v.1.15,2014-01-19 07:51:00,
2014-01-19 02:57:00,17.1,14.7,29.93,South,171,1.0,6.0,90,0.00,,,0.00,Wunderground v.1.15,2014-01-19 07:57:00,
2014-01-19 03:03:00,17.1,14.7,29.93,SE,140,1.0,6.0,90,0.00,,,0.00,Wunderground v.1.15,2014-01-19 08:03:00,
2014-01-19 03:09:00,17.1,14.7,29.93,South,174,1.0,6.0,90,0.00,,,0.00,Wunderground v.1.15,2014-01-19 08:09:00,
2014-01-19 03:15:00,17.1,14.7,29.92,South,173,1.0,6.0,90,0.00,,,0.00,Wunderground v.1.15,2014-01-19 08:15:00,
2014-01-19 03:20:00,17.2,15.0,29.93,South,173,1.0,1.0,91,0.00,,,0.00,Wunderground v.1.15,2014-01-19 08:20:00,
2014-01-19 03:26:00,17.2,15.0,29.92,SSE,166,1.0,6.0,91,0.00,,,0.00,Wunderground v.1.15,2014-01-19 08:26:00,
2014-01-19 03:32:00,17.2,15.0,29.92,SSE,166,1.0,6.0,91,0.00,,,0.00,Wunderground v.1.15,2014-01-19 08:32:00,
2014-01-19 03:38:00,17.2,15.0,29.93,SSE,167,2.0,6.0,91,0.00,,,0.00,Wunderground v.1.15,2014-01-19 08:38:00,
2014-01-19 03:44:00,17.2,15.0,29.92,SSE,167,1.0,6.0,91,0.00,,,0.00,Wunderground v.1.15,2014-01-19 08:44:00,
2014-01-19 03:50:00,17.3,15.1,29.92,SSE,167,1.0,1.0,91,0.00,,,0.00,Wunderground v.1.15,2014-01-19 08:50:00,
2014-01-19 03:56:00,17.3,15.1,29.92,SSE,167,1.0,6.0,91,0.00,,,0.00,Wunderground v.1.15,2014-01-19 08:56:00,
2014-01-19 04:01:00,17.3,15.1,29.92,SSE,167,1.0,2.0,91,0.00,,,0.00,Wunderground v.1.15,2014-01-19 09:01:00,
2014-01-19 04:07:00,17.2,15.0,29.91,SSE,167,1.0,6.0,91,0.00,,,0.00,Wunderground v.1.15,2014-01-19 09:07:00,
2014-01-19 04:13:00,17.2,15.0,29.91,South,171,1.0,6.0,91,0.00,,,0.00,Wunderground v.1.15,2014-01-19 09:13:00,
2014-01-19 04:19:00,17.2,15.0,29.91,SSE,166,1.0,6.0,91,0.00,,,0.00,Wunderground v.1.15,2014-01-19 09:19:00,
2014-01-19 04:25:00,17.2,15.0,29.90,SSE,165,1.0,6.0,91,0.00,,,0.00,Wunderground v.1.15,2014-01-19 09:25:00,
2014-01-19 04:31:00,17.1,14.9,29.90,SSE,165,1.0,6.0,91,0.00,,,0.00,Wunderground v.1.15,2014-01-19 09:31:00,
2014-01-19 04:37:00,17.1,14.9,29.90,SSE,167,1.0,6.0,91,0.00,,,0.00,Wunderground v.1.15,2014-01-19 09:37:00,
2014-01-19 04:42:00,17.0,14.8,29.90,SSE,167,1.0,6.0,91,0.00,,,0.00,Wunderground v.1.15,2014-01-19 09:42:00,
2014-01-19 04:48:00,17.0,14.8,29.90,South,171,1.0,6.0,91,0.00,,,0.00,Wunderground v.1.15,2014-01-19 09:48:00,
2014-01-19 04:54:00,17.1,14.9,29.90,SE,138,1.0,6.0,91,0.00,,,0.00,Wunderground v.1.15,2014-01-19 09:54:00,
2014-01-19 05:00:00,17.1,14.9,29.90,South,175,1.0,6.0,91,0.00,,,0.00,Wunderground v.1.15,2014-01-19 10:00:00,
2014-01-19 05:06:00,17.1,14.9,29.90,South,176,1.0,6.0,91,0.00,,,0.00,Wunderground v.1.15,2014-01-19 10:06:00,
2014-01-19 05:11:00,17.2,15.0,29.89,SSE,150,1.0,6.0,91,0.00,,,0.00,Wunderground v.1.15,2014-01-19 10:11:00,
2014-01-19 05:17:00,17.2,15.0,29.90,SSE,163,2.0,6.0,91,0.00,,,0.00,Wunderground v.1.15,2014-01-19 10:17:00,
2014-01-19 05:23:00,17.2,15.0,29.90,South,171,1.0,6.0,91,0.00,,,0.00,Wunderground v.1.15,2014-01-19 10:23:00,
2014-01-19 05:29:00,17.3,15.1,29.89,South,184,1.0,6.0,91,0.00,,,0.00,Wunderground v.1.15,2014-01-19 10:29:00,
2014-01-19 05:35:00,17.3,15.1,29.89,South,173,2.0,6.0,91,0.00,,,0.00,Wunderground v.1.15,2014-01-19 10:35:00,
2014-01-19 05:40:00,17.3,15.1,29.90,South,188,2.0,6.0,91,0.00,,,0.00,Wunderground v.1.15,2014-01-19 10:40:00,
2014-01-19 05:46:00,17.4,15.2,29.90,South,182,2.0,6.0,91,0.00,,,0.00,Wunderground v.1.15,2014-01-19 10:46:00,
2014-01-19 05:52:00,17.5,15.3,29.90,SSW,207,2.0,6.0,91,0.00,,,0.00,Wunderground v.1.15,2014-01-19 10:52:00,
2014-01-19 05:58:00,17.6,15.4,29.89,South,185,2.0,6.0,91,0.00,,,0.00,Wunderground v.1.15,2014-01-19 10:58:00,
2014-01-19 06:04:00,17.7,15.5,29.89,South,170,2.0,3.0,91,0.00,,,0.00,Wunderground v.1.15,2014-01-19 11:04:00,
2014-01-19 06:09:00,17.7,15.5,29.89,South,190,2.0,4.0,91,0.00,,,0.00,Wunderground v.1.15,2014-01-19 11:09:00,
2014-01-19 06:15:00,17.7,15.5,29.90,South,185,2.0,3.0,91,0.00,,,0.00,Wunderground v.1.15,2014-01-19 11:15:00,
2014-01-19 06:21:00,17.8,15.6,29.90,SSW,207,1.0,3.0,91,0.00,,,0.00,Wunderground v.1.15,2014-01-19 11:21:00,
2014-01-19 06:26:00,17.8,15.6,29.90,SSW,207,1.0,3.0,91,0.00,,,0.00,Wunderground v.1.15,2014-01-19 11:26:00,
2014-01-19 06:32:00,17.8,15.6,29.90,SSW,204,2.0,3.0,91,0.00,,,0.00,Wunderground v.1.15,2014-01-19 11:32:00,
2014-01-19 06:38:00,17.9,15.7,29.90,SSW,212,2.0,4.0,91,0.00,,,0.00,Wunderground v.1.15,2014-01-19 11:38:00,
2014-01-19 06:44:00,17.9,15.7,29.90,SW,217,2.0,3.0,91,0.00,,,0.00,Wunderground v.1.15,2014-01-19 11:44:00,
2014-01-19 06:49:00,18.0,15.8,29.90,SW,228,2.0,3.0,91,0.00,,,0.00,Wunderground v.1.15,2014-01-19 11:49:00,
2014-01-19 06:55:00,18.0,15.8,29.90,SSW,204,2.0,2.0,91,0.00,,,0.00,Wunderground v.1.15,2014-01-19 11:55:00,
2014-01-19 07:01:00,18.2,16.0,29.90,SSW,206,2.0,3.0,91,0.00,,,0.00,Wunderground v.1.15,2014-01-19 12:01:00,
2014-01-19 07:07:00,18.3,16.1,29.91,SSW,196,2.0,6.0,91,0.00,,,0.00,Wunderground v.1.15,2014-01-19 12:07:00,
2014-01-19 07:12:00,18.5,16.3,29.91,SSW,209,2.0,6.0,91,0.00,,,0.00,Wunderground v.1.15,2014-01-19 12:12:00,
2014-01-19 07:18:00,18.6,16.4,29.91,SW,225,3.0,6.0,91,0.00,,,0.00,Wunderground v.1.15,2014-01-19 12:18:00,
2014-01-19 07:24:00,18.8,16.6,29.91,SSW,205,3.0,6.0,91,0.00,,,0.00,Wunderground v.1.15,2014-01-19 12:24:00,
2014-01-19 07:30:00,18.9,16.7,29.91,SW,234,3.0,3.0,91,0.00,,,0.00,Wunderground v.1.15,2014-01-19 12:30:00,
2014-01-19 07:35:00,19.1,16.9,29.91,SW,221,4.0,6.0,91,0.00,,,0.00,Wunderground v.1.15,2014-01-19 12:35:00,
2014-01-19 07:41:00,19.2,17.0,29.90,SW,235,3.0,6.0,91,0.00,,,0.00,Wunderground v.1.15,2014-01-19 12:41:00,
2014-01-19 07:47:00,19.3,17.1,29.89,WSW,240,3.0,6.0,91,0.00,,,0.00,Wunderground v.1.15,2014-01-19 12:47:00,
2014-01-19 07:53:00,19.4,17.2,29.90,SSW,212,4.0,6.0,91,0.00,,,0.00,Wunderground v.1.15,2014-01-19 12:53:00,
2014-01-19 07:58:00,19.5,17.3,29.89,SSW,205,4.0,7.0,91,0.00,,,0.00,Wunderground v.1.15,2014-01-19 12:58:00,
2014-01-19 08:04:00,19.6,17.4,29.89,West,271,4.0,6.0,91,0.00,,,0.00,Wunderground v.1.15,2014-01-19 13:04:00,
2014-01-19 08:10:00,19.7,17.5,29.89,West,262,4.0,6.0,91,0.00,,,0.00,Wunderground v.1.15,2014-01-19 13:10:00,
2014-01-19 08:15:00,19.8,17.6,29.90,West,261,5.0,9.0,91,0.00,,,0.00,Wunderground v.1.15,2014-01-19 13:15:00,
2014-01-19 08:21:00,19.8,17.3,29.90,West,259,7.0,12.0,90,0.00,,,0.00,Wunderground v.1.15,2014-01-19 13:21:00,
2014-01-19 08:27:00,19.8,17.3,29.90,WNW,299,8.0,12.0,90,0.00,,,0.00,Wunderground v.1.15,2014-01-19 13:27:00,
2014-01-19 08:33:00,19.8,17.3,29.90,West,262,8.0,17.0,90,0.00,,,0.00,Wunderground v.1.15,2014-01-19 13:33:00,
2014-01-19 08:39:00,19.7,17.2,29.90,West,260,8.0,17.0,90,0.00,,,0.00,Wunderground v.1.15,2014-01-19 13:39:00,
2014-01-19 08:45:00,19.8,17.3,29.90,WSW,254,7.0,9.0,90,0.00,,,0.00,Wunderground v.1.15,2014-01-19 13:45:00,
2014-01-19 08:51:00,19.8,17.3,29.90,WSW,249,6.0,8.0,90,0.00,,,0.00,Wunderground v.1.15,2014-01-19 13:51:00,
2014-01-19 08:56:00,19.9,17.4,29.90,West,273,5.0,8.0,90,0.00,,,0.00,Wunderground v.1.15,2014-01-19 13:56:00,
2014-01-19 09:01:00,19.8,17.3,29.89,SW,227,6.0,8.0,90,0.00,,,0.00,Wunderground v.1.15,2014-01-19 14:01:00,
2014-01-19 09:07:00,19.8,17.3,29.90,SW,219,6.0,8.0,90,0.00,,,0.00,Wunderground v.1.15,2014-01-19 14:07:00,
2014-01-19 09:13:00,19.8,17.3,29.90,WSW,244,6.0,11.0,90,0.00,,,0.00,Wunderground v.1.15,2014-01-19 14:13:00,
2014-01-19 09:19:00,19.9,17.4,29.90,WSW,252,7.0,11.0,90,0.00,,,0.00,Wunderground v.1.15,2014-01-19 14:19:00,
2014-01-19 09:24:00,20.0,17.3,29.90,West,263,8.0,11.0,89,0.00,,,0.00,Wunderground v.1.15,2014-01-19 14:24:00,
2014-01-19 09:30:00,20.1,17.4,29.90,SW,215,8.0,8.0,89,0.00,,,0.00,Wunderground v.1.15,2014-01-19 14:30:00,
2014-01-19 09:36:00,20.0,17.3,29.90,SSW,211,7.0,10.0,89,0.00,,,0.00,Wunderground v.1.15,2014-01-19 14:36:00,
2014-01-19 09:42:00,20.0,17.0,29.90,WSW,247,7.0,10.0,88,0.00,,,0.00,Wunderground v.1.15,2014-01-19 14:42:00,
2014-01-19 09:48:00,20.1,17.4,29.90,SW,217,8.0,11.0,89,0.00,,,0.00,Wunderground v.1.15,2014-01-19 14:48:00,
2014-01-19 09:53:00,20.2,17.2,29.90,SSW,202,7.0,9.0,88,0.00,,,0.00,Wunderground v.1.15,2014-01-19 14:53:00,
2014-01-19 09:59:00,20.3,17.3,29.90,WSW,239,8.0,13.0,88,0.00,,,0.00,Wunderground v.1.15,2014-01-19 14:59:00,
2014-01-19 10:05:00,20.4,17.4,29.91,SW,234,6.0,17.0,88,0.00,,,0.00,Wunderground v.1.15,2014-01-19 15:05:00,
2014-01-19 10:10:00,20.5,17.5,29.91,SW,232,6.0,17.0,88,0.00,,,0.00,Wunderground v.1.15,2014-01-19 15:10:00,
2014-01-19 10:16:00,20.4,17.1,29.91,SW,215,10.0,17.0,87,0.00,,,0.00,Wunderground v.1.15,2014-01-19 15:16:00,
2014-01-19 10:22:00,20.3,16.8,29.90,West,264,11.0,17.0,86,0.00,,,0.00,Wunderground v.1.15,2014-01-19 15:22:00,
2014-01-19 10:28:00,20.4,16.9,29.90,SW,227,9.0,17.0,86,0.00,,,0.00,Wunderground v.1.15,2014-01-19 15:28:00,
2014-01-19 10:34:00,20.4,16.9,29.90,SSW,202,9.0,17.0,86,0.00,,,0.00,Wunderground v.1.15,2014-01-19 15:34:00,
2014-01-19 10:39:00,20.6,17.1,29.90,SSW,194,9.0,17.0,86,0.00,,,0.00,Wunderground v.1.15,2014-01-19 15:39:00,
2014-01-19 10:45:00,20.7,16.9,29.90,SW,227,10.0,19.0,85,0.00,,,0.00,Wunderground v.1.15,2014-01-19 15:45:00,
2014-01-19 10:51:00,20.9,17.1,29.89,SW,223,10.0,11.0,85,0.00,,,0.00,Wunderground v.1.15,2014-01-19 15:51:00,
2014-01-19 10:56:00,21.2,17.4,29.89,South,191,10.0,17.0,85,0.00,,,0.00,Wunderground v.1.15,2014-01-19 15:56:00,
2014-01-19 11:02:00,21.4,17.3,29.90,SSW,211,10.0,17.0,84,0.00,,,0.00,Wunderground v.1.15,2014-01-19 16:02:00,
2014-01-19 11:07:00,21.6,17.5,29.89,SSW,202,10.0,17.0,84,0.00,,,0.00,Wunderground v.1.15,2014-01-19 16:07:00,
2014-01-19 11:13:00,21.6,17.5,29.88,South,176,10.0,17.0,84,0.00,,,0.00,Wunderground v.1.15,2014-01-19 16:13:00,
2014-01-19 11:19:00,22.0,17.9,29.88,SSW,200,9.0,17.0,84,0.00,,,0.00,Wunderground v.1.15,2014-01-19 16:19:00,
2014-01-19 11:25:00,22.2,18.1,29.87,SSW,198,10.0,19.0,84,0.00,,,0.00,Wunderground v.1.15,2014-01-19 16:25:00,
2014-01-19 11:31:00,22.4,18.0,29.87,SSE,160,11.0,17.0,83,0.00,,,0.00,Wunderground v.1.15,2014-01-19 16:31:00,
2014-01-19 11:36:00,22.6,17.9,29.87,South,183,11.0,19.0,82,0.00,,,0.00,Wunderground v.1.15,2014-01-19 16:36:00,
2014-01-19 11:42:00,22.8,18.1,29.86,WSW,245,11.0,17.0,82,0.00,,,0.00,Wunderground v.1.15,2014-01-19 16:42:00,
2014-01-19 11:48:00,23.0,18.3,29.87,SW,233,9.0,17.0,82,0.00,,,0.00,Wunderground v.1.15,2014-01-19 16:48:00,
2014-01-19 11:53:00,23.3,18.3,29.86,SSE,163,9.0,17.0,81,0.00,,,0.00,Wunderground v.1.15,2014-01-19 16:53:00,
2014-01-19 11:59:00,23.5,18.2,29.86,SW,234,12.0,22.0,80,0.00,,,0.00,Wunderground v.1.15,2014-01-19 16:59:00,
2014-01-19 12:05:00,23.9,18.6,29.86,SSW,204,13.0,24.0,80,0.00,,,0.00,Wunderground v.1.15,2014-01-19 17:05:00,
2014-01-19 12:11:00,24.2,18.6,29.85,SW,217,12.0,12.0,79,0.00,,,0.00,Wunderground v.1.15,2014-01-19 17:11:00,
2014-01-19 12:16:00,24.3,18.4,29.85,South,189,10.0,12.0,78,0.00,,,0.00,Wunderground v.1.15,2014-01-19 17:16:00,
2014-01-19 12:22:00,24.5,18.6,29.85,SSW,199,10.0,13.0,78,0.00,,,0.00,Wunderground v.1.15,2014-01-19 17:22:00,
2014-01-19 12:28:00,24.7,18.5,29.84,SW,226,10.0,15.0,77,0.00,,,0.00,Wunderground v.1.15,2014-01-19 17:28:00,
2014-01-19 12:34:00,24.9,18.7,29.84,SW,225,8.0,14.0,77,0.00,,,0.00,Wunderground v.1.15,2014-01-19 17:34:00,
2014-01-19 12:39:00,24.7,18.2,29.84,SW,222,9.0,21.0,76,0.00,,,0.00,Wunderground v.1.15,2014-01-19 17:39:00,
2014-01-19 12:45:00,24.7,18.2,29.84,SSW,213,10.0,18.0,76,0.00,,,0.00,Wunderground v.1.15,2014-01-19 17:45:00,
2014-01-19 12:51:00,24.6,18.1,29.84,West,264,12.0,15.0,76,0.00,,,0.00,Wunderground v.1.15,2014-01-19 17:51:00,
2014-01-19 12:57:00,24.8,18.3,29.83,SW,224,11.0,15.0,76,0.00,,,0.00,Wunderground v.1.15,2014-01-19 17:57:00,
2014-01-19 13:03:00,25.1,18.6,29.83,SSW,205,11.0,22.0,76,0.00,,,0.00,Wunderground v.1.15,2014-01-19 18:03:00,
2014-01-19 13:08:00,25.3,18.8,29.82,WSW,248,12.0,22.0,76,0.00,,,0.00,Wunderground v.1.15,2014-01-19 18:08:00,
2014-01-19 13:14:00,25.5,19.0,29.82,SW,222,12.0,21.0,76,0.00,,,0.00,Wunderground v.1.15,2014-01-19 18:14:00,
2014-01-19 13:20:00,25.8,19.0,29.81,SW,227,12.0,21.0,75,0.00,,,0.00,Wunderground v.1.15,2014-01-19 18:20:00,
2014-01-19 13:26:00,25.9,19.1,29.82,SSW,200,12.0,21.0,75,0.00,,,0.00,Wunderground v.1.15,2014-01-19 18:26:00,
2014-01-19 13:32:00,26.1,19.3,29.81,SSE,150,11.0,21.0,75,0.00,,,0.00,Wunderground v.1.15,2014-01-19 18:32:00,
2014-01-19 13:37:00,26.2,19.4,29.81,SSW,196,11.0,21.0,75,0.00,,,0.00,Wunderground v.1.15,2014-01-19 18:37:00,
2014-01-19 13:43:00,26.5,19.6,29.80,West,268,10.0,21.0,75,0.00,,,0.00,Wunderground v.1.15,2014-01-19 18:43:00,
2014-01-19 13:49:00,26.7,19.5,29.80,SSW,211,12.0,21.0,74,0.00,,,0.00,Wunderground v.1.15,2014-01-19 18:49:00,
2014-01-19 13:55:00,27.3,20.1,29.80,South,186,13.0,21.0,74,0.00,,,0.00,Wunderground v.1.15,2014-01-19 18:55:00,
2014-01-19 14:00:00,27.6,20.1,29.79,WSW,246,11.0,21.0,73,0.00,,,0.00,Wunderground v.1.15,2014-01-19 19:00:00,
2014-01-19 14:06:00,28.1,20.2,29.79,South,190,10.0,21.0,72,0.00,,,0.00,Wunderground v.1.15,2014-01-19 19:06:00,
2014-01-19 14:12:00,28.4,20.2,29.79,SW,234,13.0,23.0,71,0.00,,,0.00,Wunderground v.1.15,2014-01-19 19:12:00,
2014-01-19 14:18:00,28.6,20.4,29.79,SW,219,14.0,23.0,71,0.00,,,0.00,Wunderground v.1.15,2014-01-19 19:18:00,
2014-01-19 14:24:00,29.0,20.4,29.80,SW,234,14.0,21.0,70,0.00,,,0.00,Wunderground v.1.15,2014-01-19 19:24:00,
2014-01-19 14:30:00,29.6,20.7,29.79,SW,232,13.0,21.0,69,0.00,,,0.00,Wunderground v.1.15,2014-01-19 19:30:00,
2014-01-19 14:35:00,29.8,20.9,29.79,SSW,198,13.0,21.0,69,0.00,,,0.00,Wunderground v.1.15,2014-01-19 19:35:00,
2014-01-19 14:41:00,30.2,21.2,29.79,SSW,200,13.0,21.0,69,0.00,,,0.00,Wunderground v.1.15,2014-01-19 19:41:00,
2014-01-19 14:47:00,30.3,21.0,29.80,WNW,282,12.0,21.0,68,0.00,,,0.00,Wunderground v.1.15,2014-01-19 19:47:00,
2014-01-19 14:52:00,30.1,20.5,29.79,SW,234,15.0,21.0,67,0.00,,,0.00,Wunderground v.1.15,2014-01-19 19:52:00,
2014-01-19 14:58:00,29.9,20.3,29.79,SSW,207,17.0,21.0,67,0.00,,,0.00,Wunderground v.1.15,2014-01-19 19:58:00,
2014-01-19 15:03:00,29.8,20.5,29.79,West,259,14.0,16.0,68,0.00,,,0.00,Wunderground v.1.15,2014-01-19 20:03:00,
2014-01-19 15:09:00,30.0,20.4,29.79,SW,218,13.0,21.0,67,0.00,,,0.00,Wunderground v.1.15,2014-01-19 20:09:00,
2014-01-19 15:15:00,30.2,20.6,29.78,SW,217,15.0,24.0,67,0.00,,,0.00,Wunderground v.1.15,2014-01-19 20:15:00,
2014-01-19 15:20:00,30.3,20.6,29.78,WSW,244,13.0,15.0,67,0.00,,,0.00,Wunderground v.1.15,2014-01-19 20:20:00,
2014-01-19 15:26:00,30.2,20.6,29.79,SW,218,13.0,23.0,67,0.00,,,0.00,Wunderground v.1.15,2014-01-19 20:26:00,
2014-01-19 15:32:00,30.4,20.7,29.78,SW,230,13.0,16.0,67,0.00,,,0.00,Wunderground v.1.15,2014-01-19 20:32:00,
2014-01-19 15:38:00,30.5,20.8,29.78,SSW,209,12.0,18.0,67,0.00,,,0.00,Wunderground v.1.15,2014-01-19 20:38:00,
2014-01-19 15:44:00,30.5,20.8,29.79,SW,221,12.0,21.0,67,0.00,,,0.00,Wunderground v.1.15,2014-01-19 20:44:00,
2014-01-19 15:49:00,30.6,20.9,29.79,SSW,196,12.0,21.0,67,0.00,,,0.00,Wunderground v.1.15,2014-01-19 20:49:00,
2014-01-19 15:55:00,30.7,21.0,29.79,SW,217,11.0,17.0,67,0.00,,,0.00,Wunderground v.1.15,2014-01-19 20:55:00,
2014-01-19 16:01:00,30.8,21.5,29.79,West,261,12.0,26.0,68,0.00,,,0.00,Wunderground v.1.15,2014-01-19 21:01:00,
2014-01-19 16:07:00,30.9,21.2,29.79,SW,226,11.0,26.0,67,0.00,,,0.00,Wunderground v.1.15,2014-01-19 21:07:00,
2014-01-19 16:13:00,31.1,21.8,29.79,SSW,211,11.0,26.0,68,0.00,,,0.00,Wunderground v.1.15,2014-01-19 21:13:00,
2014-01-19 16:19:00,31.1,21.8,29.79,WSW,248,12.0,26.0,68,0.00,,,0.00,Wunderground v.1.15,2014-01-19 21:19:00,
2014-01-19 16:25:00,31.0,21.7,29.79,SW,221,11.0,26.0,68,0.00,,,0.00,Wunderground v.1.15,2014-01-19 21:25:00,
2014-01-19 16:31:00,31.0,22.0,29.79,SSW,207,11.0,26.0,69,0.00,,,0.00,Wunderground v.1.15,2014-01-19 21:31:00,
2014-01-19 16:36:00,31.1,22.1,29.80,SSW,202,11.0,26.0,69,0.00,,,0.00,Wunderground v.1.15,2014-01-19 21:36:00,
2014-01-19 16:42:00,31.1,22.1,29.80,WSW,248,12.0,26.0,69,0.00,,,0.00,Wunderground v.1.15,2014-01-19 21:42:00,
2014-01-19 16:48:00,31.2,22.2,29.80,SSW,206,12.0,26.0,69,0.00,,,0.00,Wunderground v.1.15,2014-01-19 21:48:00,
2014-01-19 16:53:00,31.1,22.1,29.80,WSW,248,11.0,26.0,69,0.00,,,0.00,Wunderground v.1.15,2014-01-19 21:53:00,
2014-01-19 16:59:00,30.8,21.8,29.80,SW,219,11.0,26.0,69,0.00,,,0.00,Wunderground v.1.15,2014-01-19 21:59:00,
2014-01-19 17:05:00,30.6,22.0,29.80,WSW,241,12.0,26.0,70,0.00,,,0.00,Wunderground v.1.15,2014-01-19 22:05:00,
2014-01-19 17:11:00,30.6,22.3,29.80,SSW,211,11.0,26.0,71,0.00,,,0.00,Wunderground v.1.15,2014-01-19 22:11:00,
2014-01-19 17:17:00,30.6,22.3,29.80,South,185,12.0,26.0,71,0.00,,,0.00,Wunderground v.1.15,2014-01-19 22:17:00,
2014-01-19 17:22:00,30.7,22.4,29.79,SW,217,11.0,26.0,71,0.00,,,0.00,Wunderground v.1.15,2014-01-19 22:22:00,
2014-01-19 17:28:00,30.7,22.4,29.80,SSW,209,10.0,26.0,71,0.00,,,0.00,Wunderground v.1.15,2014-01-19 22:28:00,
2014-01-19 17:34:00,30.6,22.3,29.80,SSW,207,9.0,26.0,71,0.00,,,0.00,Wunderground v.1.15,2014-01-19 22:34:00,
2014-01-19 17:40:00,30.6,22.6,29.80,SW,218,9.0,9.0,72,0.00,,,0.00,Wunderground v.1.15,2014-01-19 22:40:00,
2014-01-19 17:46:00,30.7,22.7,29.80,SW,235,10.0,26.0,72,0.00,,,0.00,Wunderground v.1.15,2014-01-19 22:46:00,
2014-01-19 17:51:00,30.7,22.7,29.80,SSW,210,11.0,26.0,72,0.00,,,0.00,Wunderground v.1.15,2014-01-19 22:51:00,
2014-01-19 17:57:00,30.6,22.6,29.80,SW,216,8.0,26.0,72,0.00,,,0.00,Wunderground v.1.15,2014-01-19 22:57:00,
2014-01-19 18:02:00,30.6,22.6,29.79,SW,220,9.0,13.0,72,0.00,,,0.00,Wunderground v.1.15,2014-01-19 23:02:00,
2014-01-19 18:07:00,30.6,22.6,29.80,SW,220,8.0,13.0,72,0.00,,,0.00,Wunderground v.1.15,2014-01-19 23:07:00,
2014-01-19 18:12:00,30.5,22.5,29.80,SW,219,6.0,13.0,72,0.00,,,0.00,Wunderground v.1.15,2014-01-19 23:12:00,
2014-01-19 18:18:00,30.6,22.6,29.81,SW,235,8.0,13.0,72,0.00,,,0.00,Wunderground v.1.15,2014-01-19 23:18:00,
2014-01-19 18:24:00,30.6,22.6,29.80,SSW,211,8.0,11.0,72,0.00,,,0.00,Wunderground v.1.15,2014-01-19 23:24:00,
2014-01-19 18:29:00,30.5,22.5,29.80,SW,221,8.0,11.0,72,0.00,,,0.00,Wunderground v.1.15,2014-01-19 23:29:00,
2014-01-19 18:35:00,30.4,22.4,29.81,South,183,7.0,8.0,72,0.00,,,0.00,Wunderground v.1.15,2014-01-19 23:35:00,
2014-01-19 18:41:00,30.4,22.8,29.81,SW,232,8.0,9.0,73,0.00,,,0.00,Wunderground v.1.15,2014-01-19 23:41:00,
2014-01-19 18:47:00,30.5,22.5,29.81,SSW,200,9.0,14.0,72,0.00,,,0.00,Wunderground v.1.15,2014-01-19 23:47:00,
2014-01-19 18:53:00,30.5,22.5,29.81,SW,220,9.0,10.0,72,0.00,,,0.00,Wunderground v.1.15,2014-01-19 23:53:00,
2014-01-19 18:59:00,30.4,22.4,29.80,SW,223,9.0,16.0,72,0.00,,,0.00,Wunderground v.1.15,2014-01-19 23:59:00,
2014-01-19 19:05:00,30.4,22.4,29.80,SW,232,10.0,23.0,72,0.00,,,0.00,Wunderground v.1.15,2014-01-20 00:05:00,
2014-01-19 19:10:00,30.4,22.4,29.80,SW,215,10.0,23.0,72,0.00,,,0.00,Wunderground v.1.15,2014-01-20 00:10:00,
2014-01-19 19:15:00,30.5,22.5,29.80,South,170,10.0,23.0,72,0.00,,,0.00,Wunderground v.1.15,2014-01-20 00:15:00,
2014-01-19 19:21:00,30.5,22.5,29.81,South,174,9.0,23.0,72,0.00,,,0.00,Wunderground v.1.15,2014-01-20 00:21:00,
2014-01-19 19:27:00,30.5,22.2,29.81,SW,217,8.0,23.0,71,0.00,,,0.00,Wunderground v.1.15,2014-01-20 00:27:00,
2014-01-19 19:33:00,30.4,22.1,29.80,SW,220,9.0,23.0,71,0.00,,,0.00,Wunderground v.1.15,2014-01-20 00:33:00,
2014-01-19 19:39:00,30.4,22.1,29.80,WSW,246,10.0,23.0,71,0.00,,,0.00,Wunderground v.1.15,2014-01-20 00:39:00,
2014-01-19 19:45:00,30.4,22.1,29.79,SSE,165,9.0,23.0,71,0.00,,,0.00,Wunderground v.1.15,2014-01-20 00:45:00,
2014-01-19 19:51:00,30.4,22.1,29.79,South,191,9.0,23.0,71,0.00,,,0.00,Wunderground v.1.15,2014-01-20 00:51:00,
2014-01-19 19:56:00,30.4,22.1,29.80,SW,226,9.0,23.0,71,0.00,,,0.00,Wunderground v.1.15,2014-01-20 00:56:00,
2014-01-19 20:02:00,30.4,22.1,29.79,SSE,167,9.0,23.0,71,0.00,,,0.00,Wunderground v.1.15,2014-01-20 01:02:00,
2014-01-19 20:08:00,30.3,22.0,29.80,SW,233,9.0,23.0,71,0.00,,,0.00,Wunderground v.1.15,2014-01-20 01:08:00,
2014-01-19 20:14:00,30.2,21.9,29.80,SW,232,9.0,23.0,71,0.00,,,0.00,Wunderground v.1.15,2014-01-20 01:14:00,
2014-01-19 20:20:00,30.2,21.9,29.80,WSW,243,8.0,8.0,71,0.00,,,0.00,Wunderground v.1.15,2014-01-20 01:20:00,
2014-01-19 20:26:00,30.1,21.8,29.79,South,182,7.0,23.0,71,0.00,,,0.00,Wunderground v.1.15,2014-01-20 01:26:00,
2014-01-19 20:32:00,30.0,22.1,29.79,SE,140,8.0,23.0,72,0.00,,,0.00,Wunderground v.1.15,2014-01-20 01:32:00,
2014-01-19 20:38:00,30.0,22.1,29.80,South,188,9.0,23.0,72,0.00,,,0.00,Wunderground v.1.15,2014-01-20 01:38:00,
2014-01-19 20:44:00,30.0,22.1,29.79,SSW,211,8.0,23.0,72,0.00,,,0.00,Wunderground v.1.15,2014-01-20 01:44:00,
2014-01-19 20:49:00,30.0,22.1,29.80,SSW,196,7.0,23.0,72,0.00,,,0.00,Wunderground v.1.15,2014-01-20 01:49:00,
2014-01-19 20:55:00,29.9,22.0,29.79,South,189,8.0,23.0,72,0.00,,,0.00,Wunderground v.1.15,2014-01-20 01:55:00,
2014-01-19 21:00:00,29.9,22.0,29.79,SW,221,8.0,8.0,72,0.00,,,0.00,Wunderground v.1.15,2014-01-20 02:00:00,
2014-01-19 21:06:00,29.9,22.0,29.79,SSW,192,8.0,13.0,72,0.00,,,0.00,Wunderground v.1.15,2014-01-20 02:06:00,
2014-01-19 21:12:00,29.8,21.9,29.79,South,187,7.0,8.0,72,0.00,,,0.00,Wunderground v.1.15,2014-01-20 02:12:00,
2014-01-19 21:17:00,29.9,22.0,29.79,SW,227,7.0,13.0,72,0.00,,,0.00,Wunderground v.1.15,2014-01-20 02:17:00,
2014-01-19 21:23:00,29.9,22.3,29.79,SW,217,7.0,10.0,73,0.00,,,0.00,Wunderground v.1.15,2014-01-20 02:23:00,
2014-01-19 21:29:00,29.9,22.3,29.79,SSW,211,7.0,14.0,73,0.00,,,0.00,Wunderground v.1.15,2014-01-20 02:29:00,
2014-01-19 21:35:00,29.9,22.3,29.79,South,179,8.0,11.0,73,0.00,,,0.00,Wunderground v.1.15,2014-01-20 02:35:00,
2014-01-19 21:41:00,30.1,22.2,29.79,SSW,206,8.0,8.0,72,0.00,,,0.00,Wunderground v.1.15,2014-01-20 02:41:00,
2014-01-19 21:47:00,30.1,22.2,29.79,SSW,198,8.0,12.0,72,0.00,,,0.00,Wunderground v.1.15,2014-01-20 02:47:00,
2014-01-19 21:53:00,30.3,22.4,29.79,SSW,192,9.0,15.0,72,0.00,,,0.00,Wunderground v.1.15,2014-01-20 02:53:00,
2014-01-19 21:58:00,30.3,22.4,29.79,SSW,207,9.0,15.0,72,0.00,,,0.00,Wunderground v.1.15,2014-01-20 02:58:00,
2014-01-19 22:04:00,30.3,22.7,29.79,South,172,8.0,19.0,73,0.00,,,0.00,Wunderground v.1.15,2014-01-20 03:04:00,
2014-01-19 22:11:00,30.3,22.7,29.79,South,184,8.0,19.0,73,0.00,,,0.00,Wunderground v.1.15,2014-01-20 03:11:00,
2014-01-19 22:16:00,30.3,22.7,29.79,SSE,150,8.0,19.0,73,0.00,,,0.00,Wunderground v.1.15,2014-01-20 03:16:00,
2014-01-19 22:22:00,30.4,22.8,29.79,WSW,240,8.0,19.0,73,0.00,,,0.00,Wunderground v.1.15,2014-01-20 03:22:00,
2014-01-19 22:28:00,30.5,22.9,29.79,SSW,213,8.0,19.0,73,0.00,,,0.00,Wunderground v.1.15,2014-01-20 03:28:00,
2014-01-19 22:33:00,30.5,22.9,29.79,SW,217,7.0,19.0,73,0.00,,,0.00,Wunderground v.1.15,2014-01-20 03:33:00,
2014-01-19 22:39:00,30.5,22.9,29.78,SW,233,7.0,19.0,73,0.00,,,0.00,Wunderground v.1.15,2014-01-20 03:39:00,
2014-01-19 22:45:00,30.5,22.9,29.78,South,177,7.0,19.0,73,0.00,,,0.00,Wunderground v.1.15,2014-01-20 03:45:00,
2014-01-19 22:50:00,30.5,22.9,29.78,SW,217,6.0,19.0,73,0.00,,,0.00,Wunderground v.1.15,2014-01-20 03:50:00,
2014-01-19 22:56:00,30.6,23.0,29.78,SW,216,7.0,19.0,73,0.00,,,0.00,Wunderground v.1.15,2014-01-20 03:56:00,
2014-01-19 23:02:00,30.7,23.1,29.77,SW,232,7.0,19.0,73,0.00,,,0.00,Wunderground v.1.15,2014-01-20 04:02:00,
2014-01-19 23:08:00,30.8,23.2,29.77,South,180,6.0,19.0,73,0.00,,,0.00,Wunderground v.1.15,2014-01-20 04:08:00,
2014-01-19 23:13:00,30.9,23.3,29.77,SSW,208,8.0,19.0,73,0.00,,,0.00,Wunderground v.1.15,2014-01-20 04:13:00,
2014-01-19 23:19:00,31.1,23.5,29.76,SSW,199,7.0,19.0,73,0.00,,,0.00,Wunderground v.1.15,2014-01-20 04:19:00,
2014-01-19 23:25:00,31.2,23.5,29.76,SW,218,8.0,19.0,73,0.00,,,0.00,Wunderground v.1.15,2014-01-20 04:25:00,
2014-01-19 23:31:00,31.2,23.5,29.76,South,188,7.0,19.0,73,0.00,,,0.00,Wunderground v.1.15,2014-01-20 04:31:00,
2014-01-19 23:37:00,31.2,23.5,29.75,SSW,209,6.0,19.0,73,0.00,,,0.00,Wunderground v.1.15,2014-01-20 04:37:00,
2014-01-19 23:42:00,31.1,23.5,29.75,South,182,5.0,19.0,73,0.00,,,0.00,Wunderground v.1.15,2014-01-20 04:42:00,
2014-01-19 23:48:00,31.1,23.8,29.75,SSW,194,6.0,19.0,74,0.00,,,0.00,Wunderground v.1.15,2014-01-20 04:48:00,
2014-01-19 23:54:00,31.0,23.7,29.75,SSW,204,6.0,19.0,74,0.00,,,0.00,Wunderground v.1.15,2014-01-20 04:54:00,
2014-01-19 23:59:00,30.9,23.6,29.75,SSW,211,6.0,19.0,74,0.00,,,0.00,Wunderground v.1.15,2014-01-20 04:59:00,